Flag Weather past 2 weeks in Makati, Philippines

Now
84 °F

Passing clouds.


Feels Like: 92 °F
Forecast: 79 / 87 °F
Wind: 8 mph from Southeast

Location: National Airport

Current Time: Nov 26, 2014 at 7:10:11 PM

Latest Report: Nov 26, 2014 at 6:00 PM


Visibility: N/A

Pressure: 29.80 "Hg

Humidity: 74%

Dew point: 75 °F

Location of MakatiLocation

Historic Weather in Makati — Graph

°F

Makati temperature yesterday

Maximum temperature yesterday: 88 °F (at 10:00 AM)
Minimum temperature yesterday: 79 °F (at 1:00 AM)
Average temperature yesterday: 83 °F

Past Weeks' High & Low Weather Summary

 TemperatureHumidityPressure
High91 °F (Nov 12, 2:00 PM)100% (Nov 12, 6:00 AM)29.95 "Hg (Nov 12, 6:00 AM)
Low75 °F (Nov 12, 6:00 AM)13% (Nov 15, 12:00 PM)29.74 "Hg (Nov 16, 3:00 PM)
Average83 °F76%29.85 "Hg
* Reported Nov 11 5:00 PM — Nov 26 5:00 PM, Makati, Weather by CustomWeather, © 2014

Note: Actual official high and low records may vary slightly from our data, if they occured in-between our weather recording intervals... More about our weather records

Advertising

Makati weather history for previous 24 hours

 ConditionsComfort  
Time TempWeatherWind HumidityBarometerVisibility
5:00 PM
Nov 26
86 °FScattered clouds.9 mph66%29.77 "HgN/A
4:00 PM88 °FBroken clouds.9 mph66%29.74 "HgN/A
3:00 PM90 °FHot.8 mph63%29.74 "HgN/A
2:00 PM84 °FSprinkles. Broken clouds.5 mph89%29.74 "HgN/A
1:00 PM90 °FScattered clouds.8 mph63%29.77 "HgN/A
12:00 PM90 °FPassing clouds.6 mph59%29.80 "HgN/A
11:00 AM88 °FScattered clouds.6 mph62%29.83 "HgN/A
10:00 AM86 °FScattered clouds.3 mph70%29.86 "HgN/A
9:00 AM82 °FScattered clouds.3 mph84%29.86 "HgN/A
8:00 AM82 °FScattered clouds.5 mph84%29.86 "HgN/A
7:00 AM81 °FPassing clouds.No wind84%29.83 "HgN/A
6:00 AM79 °FPassing clouds.2 mph94%29.80 "HgN/A
3:00 AM81 °FPassing clouds.6 mph84%29.77 "HgN/A
2:00 AM81 °FPassing clouds.3 mph84%29.80 "HgN/A
1:00 AM81 °FPassing clouds.5 mph89%29.80 "HgN/A
12:00 AM81 °FPassing clouds.2 mph89%29.80 "HgN/A
11:00 PM
Nov 25
82 °FPassing clouds.3 mph84%29.80 "HgN/A
10:00 PM82 °FPassing clouds.5 mph84%29.80 "HgN/A
9:00 PM82 °FPassing clouds.5 mph79%29.83 "HgN/A
8:00 PM84 °FPassing clouds.7 mph70%29.80 "HgN/A
7:00 PM84 °FPassing clouds.5 mph79%29.80 "HgN/A
Weather by CustomWeather, © 2014

See weather overviewHow to use our weather pages